User: anonymous   Login
Location: Caltech
(34.1382°N, 118.1253°W)
Time: 13:53:59
(UTC-07:00)
Language:

OAO 2 Rocket - Orbit

View from above orbital plane
View from above orbital plane
View from above satellite
View from above satellite

Ground track
Ground track

The orbit data is extracted from the following two-line orbital elements,

1  3598U 68110B   16267.82691017 +.00000135 +00000-0 +35306-4 0  9997
2  3598 034.9945 041.2478 0049902 227.9981 131.6456 14.54250348506776
Epoch (UTC): 23 September 2016 19:50:45
Eccentricity: 0.0049902
inclination: 34.9945°
perigee height: 676 km
apogee height: 747 km
right ascension of ascending node: 41.2478°
argument of perigee: 227.9981°
revolutions per day: 14.54250348
mean anomaly at epoch: 131.6456°
orbit number at epoch: 50677

The dashed part of the orbit path shows where the satellite is in the earth's shadow,  

DLR